#timestamp,LO_Frequency,Hit,StdDev 
1636941615.7,286047000.8,P
1636941635.6,286047009.8,N
1636941655.4,286047018.1,N
1636941675.3,286047022.1,N
1636941695.1,286047029.5,N
1636941696.0,286047029.5,N
1636941715.8,286047025.9,N
1636941735.7,286047025.7,N
1636941755.5,286047032.8,N
1636941775.4,286047035.3,N
1636941795.2,286047036.2,N
1636941815.0,286047039.6,N
1636941815.9,286047039.6,N
1636941835.8,286047039.4,N
1636941855.6,286047024.2,N
1636941875.5,286047017.6,N
1636941895.3,286047016.0,N
1636941915.1,286047011.2,N
1636941935.9,286047010.3,N
1636941955.7,286047007.7,N
1636941975.6,286047013.5,N
1636941995.4,286047020.0,N
1636942015.2,286047022.8,N
1636942035.1,286047026.1,N
1636942036.0,286047026.1,N
1636942055.8,286047030.6,N
1636942075.6,286047040.0,Y
1636942095.5,286047018.8,P
1636942115.3,286047018.2,P
1636942135.2,286047020.7,P
1636942155.9,286047025.9,Y
1636942175.7,286047007.8,P
1636942195.6,286047011.4,N
1636942215.4,286047011.2,N
1636942235.2,286047009.5,N
1636942255.1,286047010.5,N
1636942256.0,286047010.5,N
1636942275.8,286047004.5,N
1636942295.7,286047010.8,N
1636942315.5,286047005.5,N
1636942335.3,286046999.6,N
1636942355.2,286046998.6,N
1636942375.0,286046993.5,N
1636942375.9,286046993.5,N
1636942395.7,286046995.4,N
1636942415.6,286046997.8,N
1636942435.4,286047000.3,N
1636942455.3,286047001.7,N
1636942475.1,286047009.2,N
1636942476.0,286047009.2,N
1636942495.8,286047014.0,N
1636942515.7,286047019.6,N
1636942535.5,286047025.8,Y
1636942555.4,286047025.9,P
1636942575.2,286047029.7,N
1636942595.0,286047029.1,N
1636942595.9,286047029.1,N
1636942615.8,286047028.5,Y
1636942635.6,286047004.1,P
1636942655.4,286047001.9,N
1636942675.3,286047000.4,N
1636942695.1,286047000.9,N
1636942715.9,286047001.9,N
1636942735.7,286047010.0,N
1636942755.5,286047019.1,N
1636942775.4,286047025.3,N
1636942795.2,286047028.4,N
1636942815.0,286047027.1,N
1636942815.9,286047027.1,N
1636942835.8,286047030.3,N
1636942855.6,286047035.3,N
1636942875.5,286047041.4,Y
1636942895.3,286047026.0,P
1636942915.1,286047021.0,P
1636942935.9,286047024.0,P
1636942955.7,286047027.1,Y
1636942975.6,286047004.5,P
1636942995.4,286047004.5,N
1636943015.2,286047006.8,N
1636943035.1,286047007.1,N
1636943036.0,286047007.1,N
1636943055.8,286047003.0,N
1636943075.6,286047001.2,N
1636943095.5,286046997.3,N
1636943115.3,286046998.3,N
1636943135.2,286047000.4,N
1636943155.9,286047003.8,N
1636943175.7,286047003.7,N
1636943195.6,286047002.9,N
1636943215.4,286047002.4,N
1636943235.2,286046998.4,N
1636943255.1,286046998.9,N
1636943256.0,286046998.9,N
1636943275.8,286047000.3,N
1636943295.7,286047001.3,N
1636943315.5,286047002.0,N
1636943335.3,286047001.7,N
1636943355.2,286046997.2,N
1636943375.9,286046987.2,N
1636943395.7,286046985.1,N
1636943415.6,286046984.5,N
1636943435.4,286046988.4,N
1636943455.2,286046990.0,N
1636943475.1,286046991.4,N
1636943476.0,286046991.4,N
1636943495.8,286046992.9,N
1636943515.7,286046996.7,N
1636943535.5,286047002.0,N
1636943555.3,286047010.3,N
1636943575.2,286047014.5,N
1636943595.0,286047015.6,N
1636943595.9,286047015.6,N
1636943615.8,286047012.3,N
1636943635.6,286047012.4,N
1636943655.4,286047014.0,N
1636943675.3,286047013.0,N
1636943695.1,286047014.4,N
1636943715.8,286047015.5,N
1636943735.7,286047012.5,N
1636943755.5,286047011.1,N
1636943775.4,286047007.7,N
1636943795.2,286047008.5,N
1636943815.0,286047006.4,N
1636943815.9,286047006.4,N
1636943835.8,286047009.8,N
1636943855.6,286047005.3,N
1636943875.4,286046991.3,N
1636943895.3,286046985.8,N
1636943915.1,286046986.2,N
1636943935.9,286046988.1,N
1636943955.7,286046990.9,N
1636943975.5,286046991.6,N
1636943995.4,286046993.7,N
1636944015.2,286046985.5,N
1636944035.0,286046983.0,N
1636944035.9,286046983.0,N
1636944055.8,286046980.3,N
1636944075.6,286046979.6,N
1636944095.5,286046977.7,N
1636944115.3,286046974.6,N
1636944135.1,286046974.9,N
1636944155.9,286046978.7,N
1636944175.7,286046986.1,N
1636944195.5,286046985.1,N
1636944215.4,286046983.0,N
1636944235.2,286046986.4,N
1636944255.1,286046984.7,N
1636944256.0,286046984.7,N
1636944275.8,286046982.6,N
1636944295.6,286046980.9,N
1636944315.5,286046988.0,N
1636944335.3,286046993.3,N
1636944355.2,286046999.6,N
1636944375.9,286046995.2,N
1636944395.7,286046996.5,N
1636944415.6,286047000.5,N
1636944435.4,286047003.1,N
1636944455.3,286047005.1,N
1636944475.1,286047003.8,N
1636944476.0,286047003.8,N
1636944495.8,286046999.2,N
1636944515.7,286046993.0,N
1636944535.5,286046985.0,N
1636944555.4,286046980.3,N
1636944575.2,286046979.2,N
1636944595.0,286046982.0,N
1636944595.9,286046982.0,N
1636944615.8,286046983.1,N
1636944635.6,286046988.2,N
1636944655.4,286046979.3,N
1636944675.3,286046977.4,N
1636944695.1,286046978.5,N
1636944715.9,286046979.2,N
1636944735.7,286046983.3,N
1636944755.5,286046987.3,N
1636944775.4,286046992.6,N
1636944795.2,286046996.3,N
1636944815.0,286046998.2,N
1636944815.9,286046998.2,N
1636944835.8,286047001.6,N
1636944855.6,286047004.2,N
1636944875.5,286046997.1,N
1636944895.3,286046992.2,N
1636944915.1,286046990.4,N
1636944935.9,286046994.8,N
1636944955.7,286046993.2,N
1636944975.6,286046995.1,N
1636944995.4,286046996.8,N
1636945015.2,286046999.3,N
1636945035.1,286047000.9,N
1636945036.0,286047000.9,N
1636945055.8,286047001.2,N
1636945075.6,286046999.9,N
1636945095.5,286046993.5,N
1636945115.3,286046983.2,N
1636945135.2,286046966.5,Y
1636945155.9,286046981.9,P
1636945175.7,286046984.1,P
1636945195.6,286046987.7,N
